FLOCK 3P-9 (41973 NORAD) Tracking and Keplerian Element Data

This shows tracking and keplerian element data for the satellite.

Feedback or suggestion? Click here.




ElementValue
Catalog41973
NameFLOCK 3P-9
Epoch Orbit17369
Epoch Day92.00077232
Epoch Year2020
RAAN160.7509
Inclination97.3714
Eccentricity0.0007436
Argument of Perigee194.3437
Mean Anonmoly165.7591
Mean Motion15.26519529
Decay Rate2.578E-05
L11 41973U 17008AB 20092.00077232 .00002578 00000-0 10146-3 0 9991
L22 41973 97.3714 160.7509 0007436 194.3437 165.7591 15.26519529173691

Live tracking and technical data element details for FLOCK 3P-9 (NORAD 41973). FLOCK 3P-9 can be tracked NOW for your location showing map with azimuth and elevation plus other details from your city location.

Track the satellite on the map from your city or location and see movement details for azimuth, elevation, latitude, longitude, range, height, and movement on the map or in text.







IsCatalogInMostPopularTable: catalog: 41973, numindb: 358
Update: records affected: 1



GetName: 41973 FLOCK 3P-9

Hit Count: updated at: Thu, 02 Apr 2020 04:37:33 GMT